Provo, UT

2:43 AM MDT on April 26, 2018 (GMT -0600)
Provo Municipal

Weather History for KPVU - July, 2013

Change the Weather History Date:

Thursday, July 25, 2013

  Actual Average Record
Temperature  
Mean Temperature 78 °F -  
Max Temperature 93 °F 88 °F 98 °F (2008)
Min Temperature 64 °F 59 °F 55 °F (2015)
Cooling Degree Days 14    
Growing Degree Days 28 (Base 50)    
Moisture  
Dew Point 52 °F    
Average Humidity 47    
Maximum Humidity 68    
Minimum Humidity 17    
Precipitation  
Precipitation 0.00 in - - ()
Sea Level Pressure  
Sea Level Pressure 30.10 in    
Wind  
Wind Speed 6 mph (SE)    
Max Wind Speed 14 mph    
Max Gust Speed -    
Visibility 12 miles    
Events      
Averages and records for this station are not official NWS values.
T = Trace of Precipitation, MM = Missing Value Source: NWS Daily Summary

Daily Weather History Graph

Daily Weather History Graph

Search for Another Location

Airport or City:

Astronomy

Jul. 25, 2013 Rise Set
Actual Time 6:18 AM MDT 8:47 PM MDT
Civil Twilight 5:47 AM MDT 9:18 PM MDT
Nautical Twilight 5:08 AM MDT 9:57 PM MDT
Astronomical Twilight 4:25 AM MDT 10:39 PM MDT
Moon 10:29 PM MDT (7/25) 9:52 AM MDT (7/25)
Length of Visible Light 15h 31m
Length of Day
14h 29m
Waning Gibbous, 88% of the Moon is Illuminated
Jul 25
Waning Gibbous
Jul 29
Last Quarter
Aug 6
New
Aug 14
First Quarter
Aug 20
Full

Hourly Weather History & Observations

Time (MDT) Temp. Heat Index Dew Point Humidity Pressure Visibility Wind Dir Wind Speed Gust Speed Precip Events Conditions
12:15 AM 71.6 °F - 53.6 °F 53% 30.06 in 10.0 mi SSE 10.4 mph - N/A   Clear
12:35 AM 71.6 °F - 53.6 °F 53% 30.07 in 10.0 mi South 3.5 mph - N/A   Clear
12:55 AM 71.6 °F - 53.6 °F 53% 30.06 in 10.0 mi East 6.9 mph - N/A   Clear
1:15 AM 69.8 °F - 51.8 °F 53% 30.06 in 10.0 mi Calm Calm - N/A   Clear
1:35 AM 69.8 °F - 51.8 °F 53% 30.07 in 10.0 mi North 4.6 mph - N/A   Clear
1:55 AM 69.8 °F - 53.6 °F 56% 30.07 in 10.0 mi Calm Calm - N/A   Clear
2:15 AM 66.2 °F - 53.6 °F 64% 30.07 in 10.0 mi South 4.6 mph - N/A   Clear
2:35 AM 69.8 °F - 53.6 °F 56% 30.07 in 10.0 mi South 5.8 mph - N/A   Clear
2:55 AM 66.2 °F - 55.4 °F 68% 30.08 in 10.0 mi ESE 5.8 mph - N/A   Clear
3:15 AM 64.4 °F - 53.6 °F 68% 30.07 in 10.0 mi ESE 4.6 mph - N/A   Clear
3:35 AM 66.2 °F - 51.8 °F 60% 30.08 in 10.0 mi ESE 4.6 mph - N/A   Clear
3:55 AM 66.2 °F - 51.8 °F 60% 30.08 in 10.0 mi SSE 5.8 mph - N/A   Clear
4:15 AM 66.2 °F - 53.6 °F 64% 30.08 in 10.0 mi SE 4.6 mph - N/A   Clear
4:35 AM 68.0 °F - 53.6 °F 60% 30.08 in 10.0 mi SE 4.6 mph - N/A   Clear
4:55 AM 69.8 °F - 53.6 °F 56% 30.08 in 10.0 mi ESE 4.6 mph - N/A   Clear
5:15 AM 66.2 °F - 53.6 °F 64% 30.09 in 10.0 mi ESE 3.5 mph - N/A   Clear
5:35 AM 66.2 °F - 51.8 °F 60% 30.09 in 10.0 mi ESE 4.6 mph - N/A   Clear
5:55 AM 66.2 °F - 51.8 °F 60% 30.09 in 10.0 mi South 3.5 mph - N/A   Clear
6:15 AM 64.4 °F - 53.6 °F 68% 30.10 in 10.0 mi ESE 5.8 mph - N/A   Clear
6:35 AM 64.4 °F - 53.6 °F 68% 30.10 in 10.0 mi ESE 5.8 mph - N/A   Clear
6:53 AM 66.2 °F - 53.6 °F 64% 30.11 in 15.0 mi ESE 6.9 mph - N/A   Partly Cloudy
7:56 AM 68.0 °F - 53.6 °F 60% 30.13 in 15.0 mi East 6.9 mph - N/A   Partly Cloudy
8:55 AM 73.4 °F - 53.6 °F 50% 30.14 in 15.0 mi East 3.5 mph - N/A   Partly Cloudy
9:50 AM 78.8 °F - 51.8 °F 39% 30.15 in 15.0 mi SSE 8.1 mph - N/A   Partly Cloudy
10:47 AM 82.4 °F 81.4 °F 53.6 °F 37% 30.15 in 15.0 mi SSE 5.8 mph - N/A   Partly Cloudy
11:50 AM 84.2 °F 82.8 °F 53.6 °F 35% 30.15 in 15.0 mi Variable 4.6 mph - N/A   Partly Cloudy
12:59 PM 87.8 °F - 44.6 °F 22% 30.13 in 15.0 mi Variable 4.6 mph - N/A   Partly Cloudy
1:59 PM 89.6 °F - 42.8 °F 20% 30.12 in 15.0 mi Variable 4.6 mph - N/A   Partly Cloudy
2:51 PM 91.4 °F - 42.8 °F 18% 30.10 in 15.0 mi Calm Calm - N/A   Scattered Clouds
3:47 PM 93.2 °F - 42.8 °F 17% 30.09 in 15.0 mi West 6.9 mph - N/A   Partly Cloudy
4:57 PM 93.2 °F - 46.4 °F 20% 30.08 in 15.0 mi West 9.2 mph - N/A   Scattered Clouds
5:47 PM 93.2 °F - 48.2 °F 21% 30.07 in 15.0 mi WNW 11.5 mph - N/A   Scattered Clouds
6:56 PM 91.4 °F - 44.6 °F 20% 30.06 in 15.0 mi WNW 13.8 mph - N/A   Scattered Clouds
7:47 PM 89.6 °F - 48.2 °F 24% 30.07 in 15.0 mi WNW 9.2 mph - N/A   Scattered Clouds
8:54 PM 82.4 °F 81.7 °F 55.4 °F 39% 30.09 in 15.0 mi WNW 6.9 mph - N/A   Scattered Clouds
9:15 PM 82.4 °F 82.5 °F 59.0 °F 45% 30.09 in 10.0 mi NW 9.2 mph - N/A   Clear
10:35 PM 78.8 °F - 55.4 °F 44% 30.12 in 10.0 mi NNE 3.5 mph - N/A   Clear
10:55 PM 75.2 °F - 51.8 °F 44% 30.12 in 10.0 mi East 4.6 mph - N/A   Clear
11:15 PM 75.2 °F - 48.2 °F 38% 30.13 in 10.0 mi East 4.6 mph - N/A   Clear
11:35 PM 75.2 °F - 50.0 °F 41% 30.13 in 10.0 mi ENE 3.5 mph - N/A   Clear
11:55 PM 75.2 °F - 50.0 °F 41% 30.14 in 10.0 mi SE 3.5 mph - N/A   Clear